User: anonymous   Login
Location: Hickory_Viewmont
(35.7830°N, 81.3170°W)
Time: 00:23:46
(UTC-05:00)
Language:

Okean-O - Orbit

View from above orbital plane
View from above orbital plane
View from above satellite
View from above satellite

Ground track
Ground track

The orbit data is extracted from the following two-line orbital elements,

1 25860U 99039A   17056.52451349  .00000089  00000-0  20467-4 0  9993
2 25860  98.1760  39.9373 0001759 101.7404 258.4003 14.76450209947355
Epoch (UTC): 25 February 2017 12:35:17
Eccentricity: 0.0001759
inclination: 98.1760°
perigee height: 639 km
apogee height: 642 km
right ascension of ascending node: 39.9373°
argument of perigee: 101.7404°
revolutions per day: 14.76450209
mean anomaly at epoch: 258.4003°
orbit number at epoch: 94735

The dashed part of the orbit path shows where the satellite is in the earth's shadow,  

DLR